TimeCDT,TemperatureF,Dew PointF,Humidity,Sea Level PressureIn,VisibilityMPH,Wind Direction,Wind SpeedMPH,Gust SpeedMPH,PrecipitationIn,Events,Conditions,WindDirDegrees,DateUTC
12:52 AM,73.0,64.9,76,29.76,10.0,SSE,16.1,-,N/A,,Clear,160,2013-10-03 05:52:00
1:52 AM,72.0,64.9,78,29.75,10.0,SSE,15.0,23.0,N/A,,Clear,160,2013-10-03 06:52:00
2:52 AM,72.0,64.9,78,29.74,10.0,South,16.1,21.9,N/A,,Clear,170,2013-10-03 07:52:00
3:52 AM,72.0,64.9,78,29.73,10.0,South,17.3,25.3,N/A,,Clear,170,2013-10-03 08:52:00
4:28 AM,71.6,66.2,83,29.79,10.0,South,16.1,26.5,N/A,,Mostly Cloudy,170,2013-10-03 09:28:00
4:52 AM,72.0,66.0,81,29.72,10.0,South,17.3,25.3,N/A,,Overcast,170,2013-10-03 09:52:00
5:05 AM,71.6,66.2,83,29.78,10.0,South,18.4,27.6,N/A,,Overcast,170,2013-10-03 10:05:00
5:52 AM,71.1,66.0,84,29.70,10.0,South,16.1,-,N/A,,Overcast,170,2013-10-03 10:52:00
6:52 AM,71.1,66.0,84,29.71,10.0,South,17.3,-,N/A,,Overcast,170,2013-10-03 11:52:00
7:52 AM,71.1,66.0,84,29.72,10.0,SSE,17.3,23.0,N/A,,Overcast,160,2013-10-03 12:52:00
8:52 AM,72.0,66.0,81,29.73,10.0,South,16.1,21.9,N/A,,Overcast,180,2013-10-03 13:52:00
9:52 AM,73.0,66.0,79,29.73,10.0,South,20.7,28.8,N/A,,Overcast,170,2013-10-03 14:52:00
10:16 AM,73.4,66.2,78,29.79,10.0,South,18.4,-,N/A,,Overcast,170,2013-10-03 15:16:00
10:52 AM,75.9,66.0,71,29.72,10.0,South,20.7,27.6,N/A,,Overcast,180,2013-10-03 15:52:00
11:52 AM,81.0,66.0,60,29.71,10.0,South,21.9,31.1,N/A,,Mostly Cloudy,180,2013-10-03 16:52:00
12:52 PM,82.0,66.0,58,29.70,10.0,South,16.1,25.3,N/A,,Mostly Cloudy,170,2013-10-03 17:52:00
1:00 PM,84.2,66.2,55,29.76,10.0,South,19.6,27.6,N/A,,Scattered Clouds,180,2013-10-03 18:00:00
1:52 PM,86.0,64.9,49,29.66,10.0,South,23.0,29.9,N/A,,Partly Cloudy,170,2013-10-03 18:52:00
2:52 PM,89.1,64.0,43,29.63,10.0,South,21.9,31.1,N/A,,Clear,180,2013-10-03 19:52:00
3:52 PM,89.1,64.9,45,29.61,10.0,South,27.6,34.5,N/A,,Clear,170,2013-10-03 20:52:00
4:52 PM,89.1,64.9,45,29.60,10.0,SSE,27.6,34.5,N/A,,Clear,160,2013-10-03 21:52:00
5:52 PM,88.0,64.9,46,29.60,10.0,South,20.7,36.8,N/A,,Scattered Clouds,170,2013-10-03 22:52:00
6:52 PM,84.9,64.9,51,29.62,10.0,South,18.4,-,N/A,,Mostly Cloudy,170,2013-10-03 23:52:00
7:52 PM,82.0,64.0,54,29.64,10.0,South,17.3,23.0,N/A,,Partly Cloudy,170,2013-10-04 00:52:00
8:52 PM,79.0,64.0,60,29.65,10.0,SSE,12.7,-,N/A,,Clear,150,2013-10-04 01:52:00
9:52 PM,78.1,64.0,62,29.66,10.0,SSE,13.8,-,N/A,,Clear,150,2013-10-04 02:52:00
11:52 PM,77.0,64.0,64,29.67,10.0,SSE,18.4,24.2,N/A,,Clear,160,2013-10-04 04:52:00